Simultaneous Nadir Overpasses (SNOs) Predictions

Prediction of SNOs between AQUA and GOES-15 Satellite Orbit:

Table of predicted SNOs for the next 14.0 days since TLE Epoch: 11/6/2021
Index Date Time (AQUA) AQUA Lat,Lon GOES-15 Lat,Lon Distance(km) Time Diff (sec)
1 11/06/2021 10:01:12 -0.26,-126.41 0.14,-128.46 232.15 80
2 11/06/2021 22:22:37 -0.80,-131.61 -0.12,-128.45 359.24 80
3 11/08/2021 22:10:27 -0.16,-128.66 -0.12,-128.45 23.30 80
4 11/10/2021 21:58:16 0.44,-125.70 -0.12,-128.45 312.33 80
5 11/11/2021 10:19:33 0.58,-130.87 0.10,-128.45 274.14 80
6 11/13/2021 10:07:22 -0.03,-127.91 0.10,-128.45 61.62 80
7 11/15/2021 09:55:11 -0.66,-124.95 0.10,-128.44 397.52 80
8 11/15/2021 22:16:35 -0.46,-130.14 -0.08,-128.43 194.16 80
9 11/17/2021 22:04:24 0.18,-127.18 -0.08,-128.43 141.45 80
10 11/18/2021 10:25:40 0.90,-132.34 0.06,-128.43 444.93 80
11 11/19/2021 21:52:13 0.82,-124.22 -0.09,-128.41 476.58 80
